{"data":{"norad_id":38860,"epoch":"2026-05-25T04:39:51.555744Z","epoch_age_seconds":62214,"freshness":"FRESH","line1":"1 38860U 12056A   26145.19434671  .00000960  00000+0  11691-3 0  9997","line2":"2 38860  97.6695 117.9809 0024937 336.5300  23.4775 14.85418860696171","mean_motion":14.8541886,"eccentricity":0.0024937,"inclination_deg":97.6695,"raan_deg":117.9809,"arg_perigee_deg":336.53,"mean_anomaly_deg":23.4775,"bstar":0.00011691,"rev_number":69617,"period_min":96.942353350758,"perigee_km":594.83946553723,"apogee_km":629.70342862621,"semimajor_km":6990.4084470817,"source":"CELESTRAK","updated_at":"2026-05-25T13:37:55.328496Z"}}